FRS93 LOLH-LOWL

Flight info

Callsign FRS93
Flight time 0h -11m
Altitude 2000
Route OSKAR DCT 55DME
Aircraft K100/L-SBDGRY/S

Departure

Time 2026-05-05 18:24
Airport Hofkirchen Airfield (LOLH)

Arrival

Time 2026-05-05 18:13
Airport Linz-Hörsching Airport (LOWL)
Time Latitude Longitude Altitude Speed Heading
2026-05-05 18:13 48.13848 14.33412 1179 ft 0 kts 70°
2026-05-05 18:22 48.13848 14.33414 1177 ft 4 kts 71°
2026-05-05 18:22 48.13860 14.33457 1180 ft 0 kts 31°
2026-05-05 18:22 48.13881 14.33453 1181 ft 10 kts 349°
2026-05-05 18:23 48.13908 14.33534 1181 ft 20 kts 79°
2026-05-05 18:23 48.13930 14.33781 1179 ft 24 kts 84°
2026-05-05 18:23 48.13948 14.33858 1177 ft 0 kts 262°
2026-05-05 18:23 48.13907 14.33581 1181 ft 63 kts 261°
2026-05-05 18:24 48.13823 14.32774 1399 ft 87 kts 262°
2026-05-05 18:24 48.13751 14.31773 1585 ft 102 kts 270°
2026-05-05 18:24 48.13746 14.31060 1745 ft 109 kts 273°
2026-05-05 18:24 48.13681 14.29784 1867 ft 133 kts 251°
2026-05-05 18:25 48.12975 14.28794 1912 ft 155 kts 197°
2026-05-05 18:25 48.12247 14.28675 1908 ft 159 kts 182°
2026-05-05 18:25 48.10826 14.28883 2012 ft 154 kts 175°
2026-05-05 18:25 48.10073 14.29832 1966 ft 143 kts 101°
2026-05-05 18:26 48.10410 14.31582 1953 ft 129 kts 82°
2026-05-05 18:26 48.10496 14.32458 2041 ft 121 kts 84°
2026-05-05 18:26 48.10610 14.33751 2011 ft 126 kts 76°
2026-05-05 18:26 48.10845 14.35012 2005 ft 121 kts 72°
2026-05-05 18:27 48.11113 14.36140 1986 ft 117 kts 65°
2026-05-05 18:27 48.11572 14.37111 1816 ft 120 kts 20°
2026-05-05 18:27 48.12356 14.36948 1702 ft 110 kts 348°
2026-05-05 18:27 48.13087 14.36687 1694 ft 108 kts 336°
2026-05-05 18:28 48.14033 14.35715 1527 ft 74 kts 266°
2026-05-05 18:28 48.14027 14.35012 1393 ft 59 kts 261°
2026-05-05 18:28 48.13993 14.34410 1308 ft 60 kts 254°
2026-05-05 18:29 48.13933 14.33817 1176 ft 49 kts 255°
2026-05-05 18:29 48.13876 14.33303 1188 ft 70 kts 252°
2026-05-05 18:29 48.13763 14.32532 1448 ft 85 kts 261°
2026-05-05 18:29 48.13633 14.31571 1673 ft 100 kts 263°
2026-05-05 18:30 48.13436 14.30513 1946 ft 111 kts 237°
2026-05-05 18:30 48.12730 14.29812 1918 ft 145 kts 199°
2026-05-05 18:30 48.11783 14.29523 2088 ft 139 kts 187°
2026-05-05 18:30 48.10828 14.29595 2025 ft 142 kts 161°
2026-05-05 18:31 48.10296 14.30690 2097 ft 132 kts 83°
2026-05-05 18:31 48.10604 14.31978 1916 ft 137 kts 65°
2026-05-05 18:31 48.10877 14.33245 1996 ft 123 kts 73°
2026-05-05 18:31 48.11068 14.34469 2056 ft 123 kts 75°
2026-05-05 18:32 48.11263 14.35704 2089 ft 122 kts 75°
2026-05-05 18:32 48.11486 14.36910 2130 ft 119 kts 69°
2026-05-05 18:32 48.11663 14.38084 2258 ft 113 kts 78°
2026-05-05 18:32 48.11790 14.39344 2068 ft 132 kts 81°
2026-05-05 18:33 48.12246 14.40435 1748 ft 130 kts 15°
2026-05-05 18:33 48.13082 14.40548 1616 ft 117 kts
2026-05-05 18:33 48.13864 14.40434 1522 ft 105 kts 337°
2026-05-05 18:33 48.14096 14.39606 1482 ft 96 kts 242°
2026-05-05 18:34 48.13949 14.38649 1512 ft 99 kts 268°
2026-05-05 18:34 48.14147 14.37695 1522 ft 99 kts 275°
2026-05-05 18:34 48.14166 14.36673 1525 ft 93 kts 269°
2026-05-05 18:34 48.14121 14.35710 1501 ft 89 kts 261°
2026-05-05 18:35 48.14039 14.34844 1364 ft 75 kts 257°
2026-05-05 18:35 48.13964 14.34103 1252 ft 70 kts 256°
2026-05-05 18:35 48.13902 14.33528 1181 ft 55 kts 260°
2026-05-05 18:35 48.13825 14.32794 1422 ft 79 kts 262°
2026-05-05 18:36 48.13750 14.31834 1578 ft 103 kts 264°
2026-05-05 18:36 48.13686 14.30663 1728 ft 119 kts 270°
2026-05-05 18:36 48.13664 14.29498 2191 ft 104 kts 258°
2026-05-05 18:36 48.13083 14.28680 2303 ft 124 kts 217°
2026-05-05 18:37 48.12462 14.27847 2606 ft 118 kts 231°
2026-05-05 18:37 48.11913 14.26936 2863 ft 119 kts 233°
2026-05-05 18:37 48.11380 14.25960 3179 ft 125 kts 230°
2026-05-05 18:37 48.10682 14.24957 3217 ft 154 kts 222°
2026-05-05 18:38 48.09732 14.24029 2973 ft 180 kts 206°
2026-05-05 18:38 48.08500 14.23568 3089 ft 174 kts 194°
2026-05-05 18:38 48.07354 14.23264 3413 ft 159 kts 194°
2026-05-05 18:38 48.06252 14.22915 3464 ft 168 kts 195°
2026-05-05 18:39 48.05074 14.22557 3457 ft 176 kts 195°
2026-05-05 18:39 48.03852 14.22219 3454 ft 180 kts 194°
2026-05-05 18:39 48.03037 14.22001 3457 ft 180 kts 193°
2026-05-05 18:40 48.01880 14.21666 3470 ft 182 kts 194°
2026-05-05 18:40 48.00636 14.21336 3468 ft 180 kts 187°
2026-05-05 18:40 47.99381 14.21548 3478 ft 184 kts 170°
2026-05-05 18:41 47.98143 14.22104 3469 ft 188 kts 162°
2026-05-05 18:41 47.96959 14.22949 3465 ft 190 kts 154°
2026-05-05 18:41 47.95799 14.23905 3464 ft 191 kts 155°
2026-05-05 18:41 47.94621 14.24778 3460 ft 188 kts 162°
2026-05-05 18:42 47.93426 14.25381 3551 ft 180 kts 166°
2026-05-05 18:42 47.92175 14.25365 3493 ft 182 kts 197°
2026-05-05 18:42 47.90934 14.24945 3490 ft 183 kts 194°
2026-05-05 18:42 47.89687 14.24546 3486 ft 183 kts 197°
2026-05-05 18:43 47.88494 14.23903 3491 ft 181 kts 207°
2026-05-05 18:43 47.87394 14.23003 3498 ft 180 kts 219°
2026-05-05 18:43 47.86471 14.21767 3485 ft 178 kts 227°
2026-05-05 18:43 47.85619 14.20433 3493 ft 178 kts 229°
2026-05-05 18:44 47.84962 14.18900 3498 ft 177 kts 256°
2026-05-05 18:44 47.84953 14.17111 3506 ft 177 kts 282°
2026-05-05 18:44 47.85448 14.15411 3505 ft 178 kts 297°
2026-05-05 18:44 47.86101 14.13898 3496 ft 175 kts 316°
2026-05-05 18:45 47.87129 14.12919 3496 ft 175 kts 325°
2026-05-05 18:45 47.88132 14.11901 3496 ft 173 kts 319°
2026-05-05 18:45 47.88731 14.10419 3494 ft 171 kts 277°
2026-05-05 18:45 47.88715 14.08678 3495 ft 167 kts 271°
2026-05-05 18:46 47.88782 14.06931 3493 ft 170 kts 274°
2026-05-05 18:46 47.88891 14.05155 3497 ft 175 kts 274°
2026-05-05 18:46 47.88993 14.03362 3489 ft 177 kts 273°
2026-05-05 18:46 47.89205 14.01581 3489 ft 176 kts 294°
2026-05-05 18:47 47.90078 14.00333 3490 ft 178 kts 328°
2026-05-05 18:47 47.90894 13.99035 3492 ft 173 kts 291°
2026-05-05 18:47 47.91099 13.97291 3498 ft 174 kts 263°
2026-05-05 18:47 47.90910 13.95499 3496 ft 176 kts 263°
2026-05-05 18:48 47.90833 13.93685 3494 ft 175 kts 271°
2026-05-05 18:48 47.90991 13.91898 3489 ft 174 kts 285°
2026-05-05 18:48 47.91509 13.90288 3495 ft 177 kts 300°
2026-05-05 18:48 47.92158 13.88731 3488 ft 175 kts 300°
2026-05-05 18:49 47.92800 13.87186 3492 ft 176 kts 301°
2026-05-05 18:49 47.93713 13.85968 3495 ft 181 kts 327°
2026-05-05 18:49 47.94831 13.85094 3497 ft 181 kts 329°
2026-05-05 18:49 47.95938 13.84195 3495 ft 181 kts 329°
2026-05-05 18:50 47.97153 13.83747 3495 ft 182 kts 355°
2026-05-05 18:50 47.98389 13.84078 3488 ft 185 kts 27°
2026-05-05 18:50 47.99375 13.85329 3492 ft 188 kts 45°
2026-05-05 18:50 48.00109 13.86966 3486 ft 192 kts 66°
2026-05-05 18:51 48.00326 13.88912 3489 ft 191 kts 88°
2026-05-05 18:51 48.00545 13.90838 3488 ft 192 kts 71°
2026-05-05 18:51 48.01044 13.92682 3489 ft 191 kts 66°
2026-05-05 18:51 48.01550 13.94522 3487 ft 192 kts 66°
2026-05-05 18:52 48.02095 13.96335 3487 ft 191 kts 62°
2026-05-05 18:52 48.02727 13.98071 3485 ft 190 kts 60°
2026-05-05 18:52 48.03381 13.99804 3490 ft 192 kts 58°
2026-05-05 18:52 48.04155 14.01423 3481 ft 191 kts 45°
2026-05-05 18:53 48.05129 14.02770 3480 ft 191 kts 41°
2026-05-05 18:53 48.06089 14.04143 3473 ft 191 kts 42°
2026-05-05 18:53 48.07024 14.05506 3481 ft 191 kts 42°
2026-05-05 18:53 48.07983 14.06892 3468 ft 191 kts 43°
2026-05-05 18:54 48.08945 14.08265 3471 ft 192 kts 43°
2026-05-05 18:54 48.09915 14.09631 3468 ft 191 kts 41°
2026-05-05 18:54 48.10876 14.10997 3463 ft 190 kts 41°
2026-05-05 18:54 48.11826 14.12386 3463 ft 190 kts 43°
2026-05-05 18:55 48.12762 14.13769 3459 ft 188 kts 43°
2026-05-05 18:55 48.13701 14.15118 3469 ft 190 kts 41°
2026-05-05 18:55 48.14672 14.16467 3464 ft 191 kts 42°
2026-05-05 18:55 48.15631 14.17856 3461 ft 192 kts 43°
2026-05-05 18:56 48.16590 14.19244 3460 ft 190 kts 43°
2026-05-05 18:56 48.17537 14.20620 3461 ft 190 kts 43°
2026-05-05 18:56 48.18479 14.22000 3468 ft 189 kts 43°
2026-05-05 18:56 48.19416 14.23407 3198 ft 195 kts 44°
2026-05-05 18:57 48.20261 14.24794 2974 ft 159 kts 48°
2026-05-05 18:57 48.20935 14.25949 2659 ft 139 kts 46°
2026-05-05 18:57 48.21628 14.26857 2368 ft 126 kts 35°
2026-05-05 18:57 48.22376 14.27460 2046 ft 117 kts 22°
2026-05-05 18:58 48.23096 14.27930 1957 ft 109 kts 12°
2026-05-05 18:58 48.23709 14.27456 1885 ft 111 kts 288°
2026-05-05 18:58 48.23609 14.26260 1693 ft 120 kts 262°
2026-05-05 18:58 48.23522 14.25017 1528 ft 120 kts 266°
2026-05-05 18:59 48.23467 14.23827 1362 ft 108 kts 267°
2026-05-05 18:59 48.23441 14.22807 1253 ft 92 kts 269°
2026-05-05 18:59 48.23411 14.21933 1211 ft 85 kts 267°
2026-05-05 18:59 48.23388 14.21003 1078 ft 88 kts 269°
2026-05-05 19:00 48.23373 14.20254 970 ft 49 kts 271°
2026-05-05 19:00 48.23361 14.20014 972 ft 32 kts 268°
2026-05-05 19:00 48.23437 14.19771 968 ft 27 kts 341°
2026-05-05 19:00 48.23619 14.19674 968 ft 28 kts 339°
2026-05-05 19:01 48.23760 14.19578 969 ft 10 kts 279°
2026-05-05 19:01 48.23765 14.19467 970 ft 11 kts 266°
2026-05-05 19:01 48.23761 14.19410 971 ft 0 kts 265°
2026-05-05 19:05 48.23760 14.19408 971 ft 2 kts 265°
2026-05-05 19:05 48.23754 14.19314 974 ft 17 kts 263°
2026-05-05 19:05 48.23750 14.19126 973 ft 19 kts 266°
2026-05-05 19:05 48.23740 14.18920 974 ft 21 kts 266°
2026-05-05 19:06 48.23820 14.18798 973 ft 17 kts
2026-05-05 19:06 48.23840 14.18798 972 ft 3 kts
2026-05-05 19:06 48.23850 14.18835 978 ft 0 kts 89°
2026-05-05 19:07 48.23850 14.18836 977 ft 0 kts 89°